Starlink 1826

operational
NORAD ID: 46723 Int'l Des: 2020-073 Owner: SPXS Country: US Constellation: starlink
LEOCIRCULAR

About Starlink 1826

Description loading...

Live Position

Loading 3D Globe...

Upcoming Passes

Altitude History

Altitude vs Time

uPlot chart will show altitude changes over time

Two-Line Element Set

1 46723U 20073BF 26102.18060839 .00063292 00000-0 57301-3 0 9991
2 46723 53.0467 16.3556 0001640 333.7874 26.3058 15.67489548303233
Epoch: Apr 12, 2026 • Age: 25 hours

Current Status

Altitude 373.2 km
Velocity 7.69 km/s
Sub-Earth Point -23.67°S, 76.77°W
Launch Date Oct 18, 2020
Age 5.4 years
Type internet

Technical Details

Classification Payload
Mass 260.00 kg
Dry Mass 248.00 kg
Total Mass 260.00 kg
Length 0.20 m
Diameter 2.80 m
Span 9.00 m
Shape Box + pan
Manufacturer SPXS
Bus Type Starlink
Phase Status In Orbit
Owner/State SPXS/US

Large Constellations

Loading constellations...